Location: Innsbruck
(47.2657°N, 11.3914°E)
Time: 11:49:34
(UTC+01:00)

XW-2F - Pass Details

Date: 12 December 2021
Orbit: 495 x 515 km, 97.5° (Epoch: 16 January)

Event Time Altitude Azimuth Distance (km) Brightness Sun altitude
Rises 17:57:19 0° 182° (S) 2,611 ? -15.0°
Reaches altitude 10° 17:59:28 10° 189° (S) 1,733 ? -15.3°
Maximum altitude 18:03:02 42° 261° (W) 741 ? -15.9°
Drops below altitude 10° 18:06:39 10° 334° (NNW) 1,755 ? -16.5°
Sets 18:08:51 0° 342° (NNW) 2,649 ? -16.8°
